TimeEST,TemperatureF,Dew PointF,Humidity,Sea Level PressureIn,VisibilityMPH,Wind Direction,Wind SpeedMPH,Gust SpeedMPH,PrecipitationIn,Events,Conditions,WindDirDegrees,DateUTC
12:20 AM,69.8,64.4,83,30.14,10.0,East,17.3,-,N/A,,Light Drizzle,100,2013-01-20 05:20:00
12:29 AM,68.0,64.4,88,30.15,6.0,East,13.8,-,N/A,Rain,Light Rain,100,2013-01-20 05:29:00
12:35 AM,68.0,64.4,88,30.15,5.0,East,11.5,-,N/A,Rain,Light Rain,90,2013-01-20 05:35:00
12:42 AM,66.2,62.6,88,30.15,9.0,East,9.2,-,N/A,,Scattered Clouds,80,2013-01-20 05:42:00
12:55 AM,67.3,63.7,88,30.14,10.0,East,12.7,-,0.02,,Partly Cloudy,80,2013-01-20 05:55:00
12:56 AM,68.0,62.6,83,30.15,10.0,ENE,12.7,-,N/A,,Light Drizzle,70,2013-01-20 05:56:00
1:11 AM,66.2,62.6,88,30.15,10.0,ENE,6.9,-,N/A,,Partly Cloudy,60,2013-01-20 06:11:00
1:19 AM,66.2,62.6,88,30.15,10.0,NE,10.4,-,N/A,,Light Drizzle,50,2013-01-20 06:19:00
1:37 AM,66.2,62.6,88,30.14,10.0,NNE,8.1,-,N/A,,Clear,30,2013-01-20 06:37:00
1:42 AM,66.2,62.6,88,30.14,10.0,NNE,5.8,-,N/A,,Light Drizzle,20,2013-01-20 06:42:00
1:55 AM,66.0,63.3,91,30.14,10.0,North,9.2,-,0.00,,Light Drizzle,350,2013-01-20 06:55:00
2:11 AM,66.2,64.4,94,30.12,9.0,North,8.1,-,N/A,Rain,Light Rain,360,2013-01-20 07:11:00
2:27 AM,66.2,62.6,88,30.12,10.0,NNW,8.1,-,N/A,,Light Drizzle,340,2013-01-20 07:27:00
2:28 AM,66.2,62.6,88,30.12,10.0,NNW,9.2,-,N/A,,Scattered Clouds,330,2013-01-20 07:28:00
2:55 AM,65.3,63.5,94,30.12,10.0,NNW,6.9,-,0.02,,Scattered Clouds,330,2013-01-20 07:55:00
3:04 AM,64.4,62.6,94,30.12,10.0,NNW,12.7,-,N/A,,Mostly Cloudy,330,2013-01-20 08:04:00
3:13 AM,64.4,62.6,94,30.12,10.0,NNW,13.8,-,N/A,,Mostly Cloudy,340,2013-01-20 08:13:00
3:25 AM,64.4,62.6,94,30.12,10.0,NNW,11.5,-,N/A,,Scattered Clouds,340,2013-01-20 08:25:00
3:32 AM,64.4,62.6,94,30.12,10.0,NNW,11.5,-,N/A,,Scattered Clouds,330,2013-01-20 08:32:00
3:55 AM,64.4,62.6,94,30.12,10.0,NNW,11.5,-,N/A,,Partly Cloudy,340,2013-01-20 08:55:00
4:55 AM,63.7,61.9,94,30.12,10.0,NNW,13.8,-,N/A,,Scattered Clouds,340,2013-01-20 09:55:00
5:46 AM,64.4,60.8,88,30.12,10.0,North,11.5,-,N/A,,Mostly Cloudy,10,2013-01-20 10:46:00
5:55 AM,63.7,61.7,93,30.12,10.0,North,10.4,-,N/A,,Mostly Cloudy,10,2013-01-20 10:55:00
6:30 AM,64.4,60.8,88,30.13,10.0,NNW,11.5,-,N/A,,Mostly Cloudy,340,2013-01-20 11:30:00
6:46 AM,62.6,60.8,94,30.13,10.0,NNW,10.4,-,N/A,,Mostly Cloudy,340,2013-01-20 11:46:00
6:55 AM,63.3,61.2,93,30.13,10.0,NNW,13.8,-,N/A,,Overcast,330,2013-01-20 11:55:00
7:46 AM,64.4,60.8,88,30.16,10.0,NNW,12.7,-,N/A,,Overcast,340,2013-01-20 12:46:00
7:55 AM,63.5,61.2,92,30.16,10.0,North,10.4,-,N/A,,Overcast,350,2013-01-20 12:55:00
8:55 AM,64.8,62.4,92,30.17,10.0,North,10.4,-,N/A,,Overcast,350,2013-01-20 13:55:00
9:30 AM,66.2,62.6,88,30.18,10.0,North,10.4,-,N/A,,Scattered Clouds,360,2013-01-20 14:30:00
9:39 AM,66.2,64.4,94,30.18,10.0,North,8.1,-,N/A,,Mostly Cloudy,360,2013-01-20 14:39:00
9:55 AM,67.1,64.0,90,30.18,10.0,North,9.2,-,N/A,,Mostly Cloudy,360,2013-01-20 14:55:00
9:57 AM,68.0,64.4,88,30.19,10.0,North,8.1,-,N/A,,Mostly Cloudy,360,2013-01-20 14:57:00
10:34 AM,68.0,64.4,88,30.18,10.0,North,9.2,-,N/A,,Mostly Cloudy,360,2013-01-20 15:34:00
10:55 AM,68.9,64.8,87,30.18,10.0,North,8.1,-,N/A,,Mostly Cloudy,10,2013-01-20 15:55:00
11:19 AM,69.8,64.4,83,30.16,10.0,NNE,12.7,-,N/A,,Mostly Cloudy,30,2013-01-20 16:19:00
11:55 AM,70.7,64.9,82,30.15,10.0,NNE,12.7,-,N/A,,Scattered Clouds,30,2013-01-20 16:55:00
12:01 PM,69.8,64.4,83,30.14,10.0,NNE,11.5,-,N/A,,Light Drizzle,20,2013-01-20 17:01:00
12:08 PM,69.8,64.4,83,30.14,10.0,NNE,13.8,-,N/A,,Scattered Clouds,30,2013-01-20 17:08:00
12:55 PM,69.6,64.6,84,30.12,10.0,North,12.7,-,0.00,,Scattered Clouds,10,2013-01-20 17:55:00
1:55 PM,70.5,64.0,80,30.09,10.0,NNE,13.8,-,N/A,,Clear,20,2013-01-20 18:55:00
2:55 PM,71.8,64.8,78,30.08,10.0,NE,11.5,-,N/A,,Scattered Clouds,40,2013-01-20 19:55:00
2:59 PM,69.8,64.4,83,30.08,10.0,North,13.8,-,N/A,,Mostly Cloudy,360,2013-01-20 19:59:00
3:09 PM,68.0,62.6,83,30.09,10.0,North,15.0,-,N/A,,Mostly Cloudy,360,2013-01-20 20:09:00
3:17 PM,68.0,62.6,83,30.09,10.0,North,13.8,-,N/A,,Mostly Cloudy,360,2013-01-20 20:17:00
3:21 PM,68.0,62.6,83,30.09,10.0,North,16.1,-,N/A,,Mostly Cloudy,360,2013-01-20 20:21:00
3:22 PM,68.0,62.6,83,30.09,10.0,North,15.0,-,N/A,,Light Drizzle,360,2013-01-20 20:22:00
3:32 PM,68.0,62.6,83,30.08,10.0,North,16.1,-,N/A,,Drizzle,10,2013-01-20 20:32:00
3:55 PM,67.6,63.9,88,30.08,10.0,NNE,13.8,-,0.00,,Light Drizzle,20,2013-01-20 20:55:00
4:55 PM,67.5,62.2,83,30.08,10.0,NNE,15.0,-,0.00,,Scattered Clouds,30,2013-01-20 21:55:00
5:55 PM,66.6,61.3,83,30.10,10.0,NNE,10.4,-,N/A,,Clear,20,2013-01-20 22:55:00
6:55 PM,66.7,61.2,82,30.10,10.0,North,10.4,-,N/A,,Mostly Cloudy,10,2013-01-20 23:55:00
7:55 PM,66.2,60.3,81,30.10,10.0,North,9.2,-,N/A,,Scattered Clouds,10,2013-01-21 00:55:00
7:57 PM,66.2,60.8,83,30.10,10.0,North,8.1,-,N/A,,Mostly Cloudy,10,2013-01-21 00:57:00
8:27 PM,66.2,60.8,83,30.10,10.0,North,6.9,-,N/A,,Scattered Clouds,360,2013-01-21 01:27:00
8:55 PM,66.0,60.8,83,30.11,10.0,North,6.9,-,N/A,,Scattered Clouds,360,2013-01-21 01:55:00
9:16 PM,66.2,60.8,83,30.11,10.0,North,8.1,-,N/A,,Scattered Clouds,10,2013-01-21 02:16:00
9:55 PM,66.0,61.2,84,30.11,10.0,North,6.9,-,N/A,,Clear,10,2013-01-21 02:55:00
10:55 PM,65.5,62.1,89,30.11,10.0,North,4.6,-,N/A,,Mostly Cloudy,350,2013-01-21 03:55:00
11:55 PM,65.7,62.4,89,30.10,10.0,North,6.9,-,N/A,,Scattered Clouds,350,2013-01-21 04:55:00